[[{"header":{"parameterUnit":"m.s-1","parameterCategory":1,"la1":30.2991,"la2":30.254,"lo1":-89.0895,"lo2":-89.0444,"dy":0.0017,"dx":0.0017,"nx":28,"ny":28,"refTime":"2025-12-05T09:00:00:Z","depth":0,"parameterNumber":2,"parameterNumberName":"U-component_of_WINDS"},"data":[0,0,0,0,0,0,0,0,0,0,0,0,0,0,0,0,0,0,0,0,0,0,0,0,0,0,0,0,0,0,0,0,0,0,0,0,0,0,0,0,0,0,0,0,0,0,0,0,0,0,0,0,0,0,0,0,0,0,-0.123,-0.123,0,-0.1221,-0.1221,-0.1221,-0.1183,-0.1182,-0.1181,-0.118,-0.1172,-0.1173,-0.1173,0,0,0,0,0,0,0,0,0,0,0,0,0,-0.1216,-0.1217,-0.123,-0.123,-0.123,-0.1221,-0.1221,-0.1221,-0.1183,-0.1182,-0.1181,-0.118,-0.1172,-0.1172,-0.1173,0,0,0,0,0,0,0,0,0,0,0,0,0,-0.1216,-0.1217,-0.123,-0.121,-0.1208,-0.1221,-0.1221,-0.1221,-0.1183,-0.1182,-0.1181,-0.118,-0.1172,-0.1172,-0.1173,-0.1205,0,0,-0.1176,-0.1176,0,0,0,0,0,0,0,0,-0.1216,-0.1217,-0.1213,-0.1212,-0.121,-0.1202,-0.1213,-0.1215,-0.1184,-0.1193,-0.118,-0.1179,-0.1183,-0.1183,-0.1184,-0.1204,-0.1204,-0.1176,-0.1177,-0.1177,-0.1177,0,0,0,0,0,0,0,-0.1216,-0.1217,-0.1227,-0.1213,-0.1211,-0.1202,-0.12,-0.1213,-0.1195,-0.1192,-0.1189,-0.1189,-0.1182,-0.1183,-0.1184,-0.1204,-0.1176,-0.1177,-0.1177,-0.1178,-0.1249,-0.125,0,0,0,0,0,0,-0.1219,-0.1217,-0.1227,-0.1226,-0.121,-0.1203,-0.1202,-0.1206,-0.1195,-0.1192,-0.119,-0.1187,-0.1182,-0.1183,-0.1183,-0.1219,-0.1177,-0.1178,-0.1178,-0.1247,-0.1249,-0.125,0,0,0,0,0,0,-0.1219,-0.122,-0.1227,-0.1221,-0.1221,-0.1205,-0.121,-0.1206,-0.1208,-0.1193,-0.119,-0.1194,-0.1181,-0.1182,-0.1199,-0.1218,-0.1178,-0.1179,-0.1246,-0.1248,-0.125,-0.1291,0,0,0,0,0,0,-0.1219,-0.1221,-0.1233,-0.1222,-0.1222,-0.1244,-0.1211,-0.1207,-0.1209,-0.1205,-0.1197,-0.1194,-0.118,-0.1198,-0.12,-0.1219,-0.118,-0.1244,-0.1247,-0.1249,-0.1288,-0.1294,-0.13,0,0,0,0,0,-0.1218,-0.1245,-0.1233,-0.1235,-0.1236,-0.1245,-0.1245,-0.1228,-0.1211,-0.1222,-0.1213,-0.1195,-0.1215,-0.12,-0.1202,-0.1221,-0.1243,-0.1246,-0.1249,-0.1285,-0.1293,-0.1299,0,0,0,0,0,0,-0.126,-0.1243,-0.123,-0.1254,-0.1251,-0.1239,-0.1253,-0.1237,-0.1239,-0.1236,-0.1215,-0.1213,-0.1234,-0.1229,-0.1212,-0.125,-0.1226,-0.1229,-0.1253,-0.126,-0.1266,-0.1267,-0.118,0,0,0,0,0,-0.1271,-0.128,-0.1265,-0.1288,-0.1287,-0.127,-0.1273,-0.126,-0.1257,-0.1255,-0.1247,-0.1245,-0.125,-0.1255,-0.126,-0.1287,-0.1284,-0.13,-0.1306,-0.1311,-0.1315,-0.1328,-0.1335,-0.126,-0.126,-0.126,0,0,-0.1296,-0.1288,-0.1295,-0.1296,-0.1292,-0.1301,-0.127,-0.1281,-0.1287,-0.1257,-0.1273,-0.1267,-0.1263,-0.1285,-0.1294,-0.1282,-0.1334,-0.1315,-0.1319,-0.132,-0.1332,-0.1339,-0.1345,-0.1262,-0.1262,-0.1262,0,0,-0.1346,-0.134,-0.1358,-0.1355,-0.1349,-0.1337,-0.1342,-0.1331,-0.1326,-0.1341,-0.1319,-0.1326,-0.1337,-0.1334,-0.1334,-0.1381,-0.1364,-0.1383,-0.1414,-0.1427,-0.1433,-0.1438,-0.1454,-0.1461,-0.1386,-0.1387,-0.1387,0,-0.1377,-0.139,-0.137,-0.1382,-0.1383,-0.1355,-0.1372,-0.137,-0.1366,-0.1368,-0.1353,-0.1365,-0.136,-0.1381,-0.1392,-0.1393,-0.1397,-0.1384,-0.1433,-0.1438,-0.1443,-0.1458,-0.1465,-0.1389,-0.1389,-0.1388,-0.1388,0,-0.1429,-0.1438,-0.1453,-0.1449,-0.1451,-0.1466,-0.1448,-0.1453,-0.1439,-0.1429,-0.1445,-0.1438,-0.144,-0.1444,-0.1431,-0.1462,-0.1455,-0.1437,-0.1412,-0.1453,-0.1467,-0.1473,-0.1392,-0.1391,-0.1391,-0.139,0,0,-0.1506,-0.1489,-0.1495,-0.1492,-0.1483,-0.149,-0.1503,-0.1504,-0.1509,-0.1507,-0.1517,-0.1526,-0.1509,-0.151,-0.1496,-0.1507,-0.1544,-0.1488,-0.1488,-0.1499,-0.1578,-0.1592,-0.1599,-0.1532,-0.1533,-0.1534,-0.1578,0,-0.1553,-0.1575,-0.1556,-0.1581,-0.1589,-0.1562,-0.1573,-0.1569,-0.1559,-0.1564,-0.1554,-0.156,-0.1538,-0.1538,-0.1548,-0.1538,-0.156,-0.1534,-0.1542,-0.1543,-0.1545,-0.1606,-0.1621,-0.1663,-0.1584,-0.1585,-0.1586,0,-0.1611,-0.1611,-0.1637,-0.1624,-0.1627,-0.1638,-0.1637,-0.1642,-0.1636,-0.1628,-0.1628,-0.161,-0.1622,-0.1597,-0.1613,-0.1596,-0.1597,-0.1593,-0.1594,-0.1595,-0.1567,-0.1609,-0.1677,-0.1683,-0.1594,-0.1593,-0.1593,0,-0.1665,-0.1671,-0.1687,-0.1685,-0.1672,-0.168,-0.1674,-0.1667,-0.1668,-0.1668,-0.1668,-0.1669,-0.167,-0.1671,-0.1654,-0.1637,-0.1672,-0.1645,-0.1666,-0.1666,-0.1675,-0.1675,-0.1744,-0.1676,-0.1676,-0.1675,-0.1675,0,-0.172,-0.1737,-0.171,-0.172,-0.1738,-0.1716,-0.1734,-0.1726,-0.1719,-0.1727,-0.1703,-0.1711,-0.1688,-0.1693,-0.168,-0.1695,-0.1695,-0.169,-0.1686,-0.1692,-0.1693,-0.1694,-0.169,-0.1677,-0.1677,-0.1676,-0.1676,0,-0.1784,-0.1767,-0.1782,-0.1767,-0.1763,-0.1777,-0.1764,-0.1773,-0.1761,-0.1771,-0.1772,-0.1754,-0.1759,-0.1741,-0.1744,-0.1735,-0.1757,-0.1748,-0.1759,-0.1756,-0.1778,-0.1776,-0.1851,-0.1859,-0.1785,-0.1786,-0.1786,0,-0.1821,-0.1833,-0.1818,-0.1821,-0.1817,-0.1823,-0.1824,-0.1802,-0.1804,-0.1797,-0.1807,-0.1809,-0.181,-0.1819,-0.1806,-0.1807,-0.1798,-0.1824,-0.1798,-0.1804,-0.1799,-0.1799,-0.18,-0.183,-0.1831,-0.1832,-0.1832,0,-0.1888,-0.1878,-0.188,-0.1879,-0.1881,-0.1879,-0.1876,-0.188,-0.1857,-0.186,-0.1864,-0.1865,-0.1866,-0.1869,-0.1867,-0.1861,-0.1843,-0.184,-0.1845,-0.1852,-0.1858,-0.1855,-0.1774,-0.1839,-0.1838,-0.1838,-0.1837,-0.1837,-0.1939,-0.1948,-0.1939,-0.1942,-0.1937,-0.1934,-0.1941,-0.193,-0.1932,-0.1932,-0.1918,-0.1925,-0.1917,-0.1912,-0.1908,-0.1913,-0.1901,-0.1908,-0.191,-0.1912,-0.1916,-0.1856,-0.1913,-0.1912,-0.1912,-0.1912,-0.1912,0,-0.2005,-0.1997,-0.2,-0.1996,-0.1998,-0.1979,-0.1974,-0.1977,-0.1983,-0.1977,-0.1978,-0.1982,-0.1984,-0.1971,-0.1971,-0.1977,-0.1969,-0.1978,-0.1978,-0.1977,-0.1927,-0.1923,-0.1985,-0.1985,-0.1985,-0.1985,-0.1985,-0.1985,-0.204,-0.2054,-0.2043,-0.2054,-0.2046,-0.2052,-0.2051,-0.2048,-0.2043,-0.2048,-0.205,-0.204,-0.2031,-0.203,-0.2031,-0.2027,-0.2028,-0.2041,-0.2034,-0.1987,-0.198,-0.1974,-0.197,-0.2041,-0.2041,-0.2083,-0.2084,-0.2084]},{"header":{"parameterUnit":"m.s-1","parameterCategory":1,"la1":30.2991,"la2":30.254,"lo1":-89.0895,"lo2":-89.0444,"dy":0.0017,"dx":0.0017,"nx":28,"ny":28,"refTime":"2025-12-05T09:00:00:Z","depth":0,"parameterNumber":3,"parameterNumberName":"V-component_of_WINDS"},"data":[0,0,0,0,0,0,0,0,0,0,0,0,0,0,0,0,0,0,0,0,0,0,0,0,0,0,0,0,0,0,0,0,0,0,0,0,0,0,0,0,0,0,0,0,0,0,0,0,0,0,0,0,0,0,0,0,0,0,-2.1251,-2.1252,0,-2.1271,-2.1271,-2.1271,-2.1252,-2.1251,-2.125,-2.125,-2.1269,-2.127,-2.1271,0,0,0,0,0,0,0,0,0,0,0,0,0,-2.1196,-2.1197,-2.1251,-2.1252,-2.1252,-2.1271,-2.1271,-2.1271,-2.1252,-2.1251,-2.125,-2.1249,-2.1269,-2.127,-2.1272,0,0,0,0,0,0,0,0,0,0,0,0,0,-2.1218,-2.1198,-2.1251,-2.1244,-2.1244,-2.1271,-2.1271,-2.1271,-2.1252,-2.1251,-2.125,-2.1249,-2.1268,-2.127,-2.1272,-2.1306,0,0,-2.1277,-2.1278,0,0,0,0,0,0,0,0,-2.1217,-2.122,-2.1245,-2.1245,-2.1244,-2.1258,-2.1259,-2.1283,-2.1252,-2.1249,-2.125,-2.1248,-2.1266,-2.1268,-2.1274,-2.1307,-2.1308,-2.1278,-2.1279,-2.1279,-2.128,0,0,0,0,0,0,0,-2.1216,-2.1219,-2.1259,-2.1246,-2.1245,-2.124,-2.1242,-2.1263,-2.1264,-2.1249,-2.1248,-2.125,-2.1266,-2.1273,-2.1275,-2.1308,-2.1278,-2.1279,-2.128,-2.1281,-2.1369,-2.1371,0,0,0,0,0,0,-2.1215,-2.1218,-2.1258,-2.126,-2.1228,-2.1242,-2.1244,-2.1255,-2.1263,-2.1264,-2.1251,-2.125,-2.127,-2.1272,-2.1275,-2.1316,-2.1279,-2.1281,-2.1282,-2.1368,-2.137,-2.1371,0,0,0,0,0,0,-2.1214,-2.1219,-2.1258,-2.1239,-2.1243,-2.1244,-2.1256,-2.1256,-2.1262,-2.1265,-2.1265,-2.1258,-2.1269,-2.1273,-2.1298,-2.1316,-2.1282,-2.1284,-2.1367,-2.1369,-2.137,-2.1397,0,0,0,0,0,0,-2.1212,-2.1218,-2.1232,-2.1239,-2.1244,-2.1281,-2.1257,-2.1257,-2.1266,-2.1263,-2.1272,-2.1272,-2.1269,-2.1296,-2.13,-2.1318,-2.1285,-2.1365,-2.1368,-2.137,-2.1394,-2.1399,-2.1404,0,0,0,0,0,-2.121,-2.1238,-2.1232,-2.1237,-2.1261,-2.1282,-2.1285,-2.1281,-2.1267,-2.128,-2.1282,-2.1272,-2.1313,-2.1299,-2.1304,-2.1322,-2.1364,-2.1367,-2.137,-2.1392,-2.1398,-2.1404,0,0,0,0,0,0,-2.1233,-2.1239,-2.1233,-2.1264,-2.1273,-2.1279,-2.1295,-2.1287,-2.13,-2.1297,-2.1291,-2.1293,-2.132,-2.1324,-2.1307,-2.1355,-2.1336,-2.134,-2.1352,-2.1358,-2.1362,-2.1361,-2.1287,0,0,0,0,0,-2.1242,-2.1258,-2.1263,-2.129,-2.1295,-2.1294,-2.1303,-2.1299,-2.1308,-2.1311,-2.1315,-2.1323,-2.1338,-2.1348,-2.1362,-2.1395,-2.1396,-2.141,-2.1415,-2.1418,-2.1422,-2.1439,-2.1445,-2.138,-2.138,-2.138,0,0,-2.126,-2.1265,-2.1276,-2.1295,-2.1301,-2.1318,-2.1297,-2.1317,-2.1329,-2.1314,-2.1339,-2.1342,-2.1351,-2.138,-2.1393,-2.1384,-2.144,-2.1422,-2.1425,-2.1426,-2.1442,-2.1448,-2.1454,-2.1382,-2.1382,-2.1381,0,0,-2.1301,-2.1307,-2.133,-2.1337,-2.1346,-2.1346,-2.1351,-2.1359,-2.136,-2.1385,-2.1374,-2.1388,-2.1414,-2.1421,-2.1428,-2.1472,-2.1462,-2.1476,-2.15,-2.1517,-2.1522,-2.1527,-2.1542,-2.1548,-2.148,-2.148,-2.148,0,-2.1322,-2.1348,-2.1343,-2.1363,-2.1371,-2.1358,-2.1381,-2.1388,-2.1402,-2.1407,-2.1397,-2.1429,-2.1434,-2.1465,-2.1475,-2.1482,-2.1487,-2.1475,-2.1522,-2.1526,-2.153,-2.1545,-2.1551,-2.1482,-2.1481,-2.1481,-2.1481,0,-2.1373,-2.1391,-2.1408,-2.1422,-2.1432,-2.1453,-2.1451,-2.1462,-2.1457,-2.1458,-2.1483,-2.1489,-2.1503,-2.151,-2.1506,-2.154,-2.1534,-2.1523,-2.1504,-2.1538,-2.1552,-2.1557,-2.1484,-2.1483,-2.1483,-2.1482,0,0,-2.1429,-2.1439,-2.1446,-2.1452,-2.1461,-2.1475,-2.1495,-2.151,-2.1519,-2.1529,-2.1546,-2.1568,-2.1558,-2.1566,-2.1562,-2.1576,-2.161,-2.1563,-2.1563,-2.1571,-2.1648,-2.1656,-2.1663,-2.1604,-2.1605,-2.1606,-2.1647,0,-2.147,-2.1506,-2.1502,-2.1536,-2.1553,-2.1541,-2.1559,-2.1566,-2.1567,-2.1581,-2.1582,-2.1598,-2.1583,-2.1587,-2.1602,-2.1603,-2.1625,-2.16,-2.1619,-2.162,-2.1617,-2.167,-2.1679,-2.1717,-2.1652,-2.1653,-2.1654,0,-2.1523,-2.1535,-2.1571,-2.1578,-2.1584,-2.16,-2.1613,-2.1627,-2.1635,-2.1635,-2.1643,-2.1637,-2.1657,-2.1638,-2.1665,-2.1648,-2.1656,-2.1658,-2.1659,-2.1661,-2.1639,-2.1672,-2.1729,-2.1735,-2.1662,-2.1661,-2.1661,0,-2.156,-2.1585,-2.1609,-2.1615,-2.1623,-2.1635,-2.1639,-2.1646,-2.1655,-2.1666,-2.1672,-2.1685,-2.1693,-2.1703,-2.17,-2.1686,-2.1728,-2.1709,-2.1728,-2.1728,-2.1737,-2.1737,-2.1796,-2.1743,-2.1743,-2.1743,-2.1743,0,-2.1607,-2.1629,-2.1626,-2.1641,-2.1666,-2.1661,-2.1685,-2.1687,-2.1694,-2.1709,-2.1699,-2.1714,-2.1709,-2.1723,-2.1721,-2.1744,-2.1747,-2.1747,-2.1747,-2.1748,-2.1748,-2.1753,-2.175,-2.1744,-2.1744,-2.1744,-2.1743,0,-2.1652,-2.1651,-2.1677,-2.1683,-2.1685,-2.1703,-2.1707,-2.1721,-2.1722,-2.1741,-2.1745,-2.1745,-2.1761,-2.1759,-2.1777,-2.1776,-2.1804,-2.18,-2.1801,-2.18,-2.182,-2.1818,-2.1884,-2.1893,-2.1834,-2.1835,-2.1835,0,-2.1682,-2.1698,-2.1706,-2.1716,-2.172,-2.1736,-2.1745,-2.1741,-2.175,-2.1761,-2.1773,-2.1789,-2.18,-2.1826,-2.1828,-2.1842,-2.1838,-2.186,-2.184,-2.1841,-2.1838,-2.1837,-2.1838,-2.1864,-2.1865,-2.1865,-2.1865,0,-2.1734,-2.1733,-2.1746,-2.1759,-2.177,-2.178,-2.179,-2.1798,-2.1794,-2.1806,-2.1822,-2.1831,-2.1849,-2.1864,-2.1877,-2.1881,-2.1873,-2.1872,-2.1877,-2.1879,-2.1879,-2.1879,-2.1812,-2.187,-2.187,-2.187,-2.1869,-2.1869,-2.1772,-2.1786,-2.1794,-2.1809,-2.1816,-2.1824,-2.1838,-2.1839,-2.1853,-2.1867,-2.1864,-2.1882,-2.189,-2.1906,-2.1911,-2.1925,-2.1917,-2.1925,-2.1927,-2.1928,-2.1931,-2.1877,-2.1928,-2.1927,-2.1927,-2.1927,-2.1927,0,-2.1824,-2.1828,-2.1842,-2.1855,-2.1867,-2.1858,-2.1868,-2.1878,-2.1895,-2.1902,-2.1914,-2.1933,-2.1947,-2.195,-2.1964,-2.1974,-2.1971,-2.1978,-2.1977,-2.1978,-2.1937,-2.1931,-2.1981,-2.1981,-2.198,-2.198,-2.198,-2.198,-2.1852,-2.1876,-2.1875,-2.1902,-2.1906,-2.1924,-2.193,-2.1938,-2.1944,-2.1965,-2.1977,-2.1979,-2.1984,-2.1998,-2.2011,-2.2011,-2.2017,-2.2025,-2.2024,-2.1986,-2.1981,-2.1976,-2.197,-2.2027,-2.2027,-2.2064,-2.2064,-2.2065]}]]